This is the latest recevied weather packets stored in our database for station/object PY3MO-11. If no packets are shown the sender has not sent any weather packets the latest 10 day(s).
| Time | Temp. | Humidity | Pressure | Rain* | Wind** | Luminosity | Snow |
|---|---|---|---|---|---|---|---|
| 1777845243 | 10.56° C | 79% | 1019.6 hPa | 0 mm | - | - | - |
| 1777844942 | 10.56° C | 79% | 1019.7 hPa | 0 mm | - | - | - |
| 1777844642 | 10.56° C | 79% | 1019.6 hPa | 0 mm | - | - | - |
| 1777844342 | 10.56° C | 79% | 1019.7 hPa | 0 mm | - | - | - |
| 1777844042 | 10.56° C | 79% | 1019.7 hPa | 0 mm | - | - | - |
| 1777843742 | 10.56° C | 79% | 1019.8 hPa | 0 mm | - | - | - |
| 1777843442 | 10.56° C | 78% | 1019.9 hPa | 0 mm | - | - | - |
| 1777843142 | 10.56° C | 78% | 1019.8 hPa | 0 mm | - | - | - |
| 1777842841 | 10.56° C | 78% | 1019.8 hPa | 0 mm | - | - | - |
| 1777842543 | 10.56° C | 78% | 1019.8 hPa | 0 mm | - | - | - |
| 1777842243 | 10.56° C | 78% | 1019.9 hPa | 0 mm | - | - | - |
| 1777841943 | 11.11° C | 77% | 1019.6 hPa | 0 mm | - | - | - |
| 1777841643 | 11.11° C | 77% | 1020 hPa | 0 mm | - | - | - |
| 1777841343 | 11.11° C | 76% | 1019.9 hPa | 0 mm | - | - | - |
| 1777841042 | 11.11° C | 75% | 1019.9 hPa | 0 mm | - | - | - |
| 1777840742 | 11.67° C | 75% | 1020 hPa | 0 mm | - | - | - |
| 1777840442 | 11.67° C | 74% | 1019.9 hPa | 0 mm | - | - | - |
| 1777840142 | 11.67° C | 74% | 1020 hPa | 0 mm | - | - | - |
| 1777839842 | 11.67° C | 73% | 1019.9 hPa | 0 mm | - | - | - |
| 1777839542 | 12.22° C | 73% | 1020.1 hPa | 0 mm | - | - | - |
| 1777839242 | 12.22° C | 72% | 1020 hPa | 0 mm | - | - | - |
| 1777838943 | 12.78° C | 66% | 1020.2 hPa | 0 mm | - | - | - |
| 1777838643 | 13.89° C | 64% | 1019.9 hPa | 0 mm | - | - | - |
| 1777838343 | 14.44° C | 63% | 1020 hPa | 0 mm | - | - | - |
| 1777838043 | 15° C | 62% | 1020.1 hPa | 0 mm | - | - | - |
* Rain latest hour (hover to see other rain measurements)
** Current wind speed in m/s (hover to see current wind gust speed)